Weather observations for the past three days for
Rochester, Greater Rochester International Airport
Imperial (Metric)
Date Time (edt) Wind (mph) Vis. (mi.) Weather Sky Cond. Temperature (ºF) Relative Humidity Wind Chill (°F) Heat Index (°F) Pressure Precipitation (in)
Air Dwpt 6 hour altimeter (in) sea level (mb) 1 hr 3 hr 6 hr
Max. Min.
13 03:54 SW 7 10.00 Partly Cloudy FEW150 SCT250 57 51.1 81% 29.93 1013.8
13 02:54 SW 6 10.00 Partly Cloudy SCT250 55.9 52 87% 29.94 1014.2
13 01:54 SW 5 10.00 Mostly Cloudy BKN250 57 52 73 57 83% 29.95 1014.3
13 00:54 S 3 10.00 Mostly Cloudy FEW180 BKN250 57 52 83% 29.96 1014.5
12 23:54 SW 3 10.00 Fair CLR 57.9 54 87% 29.97 1015.0
12 22:54 Calm 10.00 Fair CLR 62.1 53.1 73% 29.97 1015.0
12 21:54 SE 3 10.00 Partly Cloudy FEW150 SCT200 64.9 54 68% 29.97 1015.2
12 20:54 SE 6 10.00 A Few Clouds FEW150 FEW200 66.9 54 63% 29.98 1015.2
12 19:54 SW 3 10.00 A Few Clouds FEW250 73 48 75 69.1 41% 29.98 1015.2
12 18:54 W 6 10.00 Fair CLR 73.9 50 43% 29.98 1015.4
12 17:54 Vrbl 5 10.00 A Few Clouds FEW060 FEW250 75 48 39% 77 29.98 1015.6
12 16:54 Vrbl 3 10.00 Mostly Cloudy BKN060 75 48 39% 77 29.99 1015.9
12 15:54 Calm 10.00 Partly Cloudy SCT050 SCT250 75 50 42% 78 30.01 1016.3
12 14:54 Calm 10.00 Mostly Cloudy BKN055 73 50 44% 30.02 1016.6
12 13:54 SW 5 10.00 Partly Cloudy SCT049 SCT250 71.1 51.1 71.1 55 49% 30.03 1017.0
12 12:54 Calm 10.00 Partly Cloudy FEW040 SCT250 69.1 52 55% 30.05 1017.6
12 11:54 W 6 10.00 Mostly Cloudy SCT042 BKN250 66 51.1 59% 30.05 1017.7
12 10:54 SW 6 10.00 Mostly Cloudy FEW032 SCT039 BKN250 64.9 52 63% 30.05 1018.0
12 09:54 SW 5 10.00 Mostly Cloudy FEW046 BKN250 63 52 68% 30.06 1018.3
12 08:54 Vrbl 3 10.00 Mostly Cloudy FEW043 SCT070 BKN250 60.1 54 80% 30.06 1018.2
12 07:54 SW 3 10.00 Mostly Cloudy BKN043 BKN070 BKN250 55 54 55 48 96% 30.06 1018.3
12 06:54 Calm 4.00 Fog/Mist FEW001 SCT070 BKN250 52 51.1 97% 30.05 1018.0
12 05:54 SW 5 0.50 Fog BKN001 BKN070 BKN250 48.9 46 90% 48 30.04 1017.7
12 04:54 Calm 10.00 Mostly Cloudy FEW070 BKN250 50 46.9 89% 30.02 1017.1
12 03:54 Calm 9.00 A Few Clouds FEW080 51.1 48 89% 30.03 1017.3
12 02:54 N 3 10.00 A Few Clouds FEW080 52 48.9 89% 30.03 1017.2
12 01:54 S 3 10.00 Partly Cloudy FEW080 SCT250 54 51.1 59 54 90% 30.03 1017.2
12 00:54 Calm 10.00 Partly Cloudy FEW044 SCT070 55.9 51.1 84% 30.04 1017.4
11 23:54 S 6 10.00 Overcast OVC045 57 52 83% 30.04 1017.6
11 22:54 Calm 10.00 Overcast OVC043 57 52 83% 30.04 1017.7
11 21:54 S 3 10.00 Overcast OVC039 57.9 52 81% 30.04 1017.5
11 20:54 Calm 10.00 Overcast BKN030 OVC040 57.9 51.1 78% 30.03 1017.2
11 19:54 Calm 10.00 Overcast FEW015 BKN032 OVC039 59 51.1 60.1 57 75% 30.02 1016.9
11 18:54 Calm 10.00 Overcast BKN030 OVC039 59 51.1 75% 30.01 1016.4
11 17:54 NE 3 10.00 Overcast FEW015 BKN030 OVC039 59 51.1 75% 30.01 1016.4
11 16:54 NE 6 10.00 Overcast FEW015 BKN026 OVC035 57.9 51.1 78% 30.01 1016.5
11 15:54 NE 9 10.00 Overcast FEW015 OVC026 57.9 51.1 78% 30.01 1016.5
11 14:54 N 10 10.00 Overcast FEW015 OVC028 60.1 50 70% 30.01 1016.5
11 13:54 E 5 10.00 Overcast FEW013 SCT024 OVC039 60.1 51.1 61 54 72% 30.01 1016.5 0.01
11 12:54 N 5 10.00 Overcast FEW013 SCT022 OVC036 57.9 52 81% 30.01 1016.7
11 11:54 Vrbl 3 10.00 Overcast SCT010 BKN016 OVC025 59 52 78% 30.01 1016.6
11 10:54 NE 7 3.00 Light Drizzle Fog/Mist OVC010 55 51.1 87% 30.01 1016.6 0.01 0.01
11 09:54 NE 9 3.00 Light Drizzle Fog/Mist OVC007 54 51.1 90% 30 1016.3
11 08:54 N 9 6.00 Light Drizzle Fog/Mist BKN010 OVC025 54 50 87% 29.98 1015.7
11 07:54 W 3 10.00 Overcast OVC024 55 50 55 55 83% 29.96 1015.0
11 06:54 Calm 10.00 Overcast BKN026 OVC037 55 48.9 80% 29.96 1014.7
11 05:54 NW 3 10.00 Overcast BKN023 OVC038 55 48.9 80% 29.93 1013.9
11 04:54 W 5 10.00 Overcast OVC022 55 48.9 80% 29.92 1013.5
11 03:54 NW 5 10.00 Overcast OVC021 55 48.9 80% 29.91 1013.2
11 02:54 NW 5 10.00 Overcast BKN020 OVC026 55 48.9 80% 29.9 1012.8
11 01:54 W 5 10.00 Overcast OVC028 55 48.9 55.9 55 80% 29.9 1012.9
11 00:54 W 6 10.00 Overcast OVC030 55 48.9 80% 29.9 1012.8
10 23:54 W 6 10.00 Overcast OVC028 55 48.9 80% 29.89 1012.5
10 22:54 W 5 10.00 Overcast OVC026 55.9 48 75% 29.88 1012.0
10 21:54 W 3 10.00 Overcast OVC024 55.9 48 75% 29.86 1011.6
10 20:54 W 7 10.00 Overcast BKN024 OVC030 55.9 48 75% 29.83 1010.6
10 19:54 W 6 10.00 Overcast BKN023 OVC030 55.9 46.9 57.9 55.9 72% 29.82 1010.3
10 18:54 W 8 10.00 Overcast FEW015 BKN024 OVC030 57 48 72% 29.82 1010.0
10 17:54 W 7 10.00 Overcast FEW015 BKN024 OVC030 57 48 72% 29.81 1009.6
10 16:54 NW 10 10.00 Overcast BKN019 OVC030 57 48.9 74% 29.8 1009.3
10 15:54 NW 9 10.00 Overcast OVC018 57 48.9 74% 29.78 1008.7
10 14:54 W 10 10.00 Overcast OVC016 57 50 78% 29.77 1008.3
10 13:54 NW 10 10.00 Overcast OVC018 57 50 57.9 55 78% 29.75 1007.7
10 12:54 NW 10 G 18 10.00 Overcast FEW008 BKN017 OVC023 55 50 83% 29.74 1007.5
10 11:54 NW 10 G 18 9.00 Overcast OVC016 55.9 51.1 84% 29.73 1007.2
10 10:54 W 13 10.00 Overcast OVC025 57.9 50 75% 29.72 1006.7
10 09:54 W 10 10.00 Overcast FEW016 BKN024 OVC031 57.9 51.1 78% 29.71 1006.4
10 08:54 W 9 10.00 Mostly Cloudy BKN016 57 51.1 81% 29.71 1006.3
10 07:54 W 9 10.00 Overcast OVC016 55.9 51.1 55.9 51.1 84% 29.7 1005.9
10 06:54 W 10 10.00 Overcast OVC016 54 50 87% 29.68 1005.4
10 05:54 W 9 10.00 Overcast BKN018 OVC035 53.1 48.9 86% 29.67 1005.1
10 04:54 SW 9 10.00 Mostly Cloudy FEW018 FEW070 BKN180 BKN250 51.1 48 89% 29.66 1004.7
Date Time (edt) Wind (mph) Vis. (mi.) Weather Sky Cond. Air Dwpt Max. Min. Relative Humidity Wind Chill (°F) Heat Index (°F) altimeter (in) sea level (mb) 1 hr 3 hr 6 hr
6 hour
Temperature (ºF) Pressure Precipitation (in)